Weather in Fanernoye

Russia / Nizhny Novgorod Oblast'     57°08′52″N   44°31′07″E
temp.,
°C
wind,
m/s
gust,
m/s
humid.,
%
clouds,
%
prec.,
mm/h
press.,
hPa
HPBL,
m
29 november, mon
mon2900:00+1sw41095100 0.0 1011473
03:00+1sw3895100 0.0 1012488
06:00−1ssw2699100 0.0 1012210
09:000sse2698100 0.0 1013228
12:00+1se2698100 0.0 1012213
15:00+1ese3899100 0.0 1009253
18:00+1ese41099100 0.3 1006320
21:00+2ese41199100 1.1 1002382
30 november, tue
tue3000:00+2ese41199100 0.2 999440
03:00+2ese51398100 0.5 993500
06:00+3se61797100 5.4 986880
09:00+6sse71896100 8.3 9801146
12:00+8ssw81889100 2.5 9771396
15:00+5ssw81677100 2.8 9801222
18:00+3ssw71672100 0.0 9811453
21:00+1ssw81777100 0.1 9811645
1 december, wed
wed100:00+1ssw81776100 0.3 9811678
03:00−1ssw91778100 0.6 9821509
06:00−2sw61392100 0.3 9851394
09:00−2ssw51192100 0.6 9871112
12:00−2sw5108499 0.3 9871038
15:00−2sw4982100 0.4 987899
18:00−3sw498799 0.1 989777
21:00−4wsw4984100 0.3 990806
2 december, thu
thu200:00−4wsw498894 0.1 991826
03:00−4wsw4988100 0.3 992904
06:00−5wsw4881100 0.2 994927
09:00−6wsw4982100 0.3 997900
12:00−5wsw487699 0.1 998942
15:00−5wsw4979100 0.1 999711
18:00−4sw4983100 0.0 1000599
21:00−4ssw398685 0.0 999535
3 december, fri
fri300:00−4s399283 0.1 999507
03:00−4s3894100 0.2 998362
06:00−3s31097100 0.3 998403
09:00+1sw51397100 0.8 999804
12:00+1wsw51293100 0.3 10011027
15:00+1wsw41197100 0.5 1003795
18:000wsw3988100 0.0 1006542
21:00−1ssw2696100 0.0 1008197